Aérodrome :
LOGIN :

S'inscrire | Disclaimer

   EN    FR    IT 

 










Légende :    VFR   VFR Marginal   IFR   IFR Intensif   IFR Très Intensif
Visi : 
Plafond : 
>= 8 km
>= 3000ft
5 à 8 km
1000 à 3000 ft
1500m à 5 km
500 à 1000 ft
800 à 1500m
200 à 500 ft
< 800m
< 200 ft
Symboles :   Orages  Brouillard  Fortes neiges  Fortes précipitations  Vent > 20 kt
SIGMETs :   Divers  Orages  Givrage  Turbulence  Onde Orograph.  Cendres Volcan.







- Altitude de l'aérodrome : 28 ft
- Code IATA : SOZ
- Voir les cartes d'approche


LFKS - Solenzara

DERNIER METAR :
  • 250430Z AUTO 27004KT CAVOK 14/10 Q1017

METARs EXPIRÉS :
  • 250400Z AUTO 28005KT CAVOK 14/11 Q1017
  • 250330Z AUTO 29005KT CAVOK 14/11 Q1017
  • 250300Z AUTO 28005KT 260V320 CAVOK 15/11 Q1017
  • 250230Z AUTO 30004KT CAVOK 15/12 Q1017
  • 250200Z AUTO 29004KT CAVOK 15/12 Q1017

TAF TAF LFKS
Valide du 24 à 21h jusqu'au 25 à 21h UTC


242000Z 2421/2521 27005KT CAVOK
Pas de NOTAMs connus pour ce terrain.



MET'MAP, la Météo Aéronautique d'un coup d'oeil ! - Copyright ORBIFLY Décembre 2007 - Disclaimer

ORBIFLY MET'MAP TEAM :

Programmation & Développement : Alexandra Zaïnal
Conception & Développement : Baudouin d'Aumeries
Co-Programmation & Développement : Marc-Olivier Méhu
Soutien technique & logistique : Manuel Goepfert

Contact : metmap@orbifly.com




SOURCES & CREDITS :

   NOAA